C/2004 X2 (LINEAR)

Epoch 2004 Aug. 23.0 TT = JDT 2453240.5  

T 2004 Aug. 24.27743 TT                                 Nakano

q   3.7930152            (2000.0)            P               Q

z  +0.0006844      Peri.  162.20438     -0.50294063     -0.41777522

 +/-0.0000137      Node   307.34103     +0.63104838     +0.42071472

e   0.9974042      Incl.   72.12157     +0.59061719     -0.80527199

From 240 observations 2004 Nov. 19-2005 Apr. 2, mean residual 0".57.

   (1/a)org.= +0.001082, (1/a)fut.= +0.001343 (+/-0.000014), Q= 6.

Residuals in seconds of arc 

2004/                     041217 372  1.3-  0.3-    050131 104  0.2-  0.1+  

041119 699  0.4-  0.1-    041218 704  0.6+  0.7-    050131 104  0.2-  0.1+  

041119 699 (2.2-  0.6+)   041218 704  0.4+  0.8-    050131 104  0.3-  0.2+  

041119 699  1.2-  0.1+    041218 704  0.0   0.2-    050201 A61  0.0   0.5-  

041119 699  1.4-  1.7+    041218 704  0.0   0.0     050201 A61  0.3-  0.3-  

041208 704  0.2+  0.7+    041218 704  0.2+  0.4-    050201 A61  1.0-  0.3+  

041208 704  0.2+  0.3+    041218 349  0.4-  0.1+    050204 703  0.7-  0.1+  

041208 704  0.3-  0.2+    041218 349  0.3-  0.2+    050204 703  0.7-  1.3+  

041208 704  0.1-  0.5+    041218 349  0.2-  0.4+    050204 703  0.2+  1.9+  

041209 704  0.4+  1.3-    041219 A61  0.5-  0.5-    050204 703  0.6-  0.8+  

041209 704  0.6+  0.4-    041219 A61  0.8+  1.1-    050204 A65  1.0+  0.7+  

041209 704  0.3+  0.1-    041219 A61  0.8-  0.0     050204 A65  0.1-  0.1-  

041209 704  0.2-  0.4+    2005/                     050204 A65  0.7-  0.8-  

041209 704  0.4-  0.9-    050101 J76  0.5+  0.3+    050204 A65  0.3-  0.6-  

041209 693  0.5+  0.4-    050101 J76  0.7+  0.2-    050204 A65  0.0   0.2-  

041209 693  0.9+  0.7-    050101 J76  0.7+  0.5-    050204 A65  0.4+  0.0   

041209 693  1.3+  0.9-    050102 213  0.1-  0.2+    050204 A65  0.4+  0.0   

041209 693  0.7+  0.6-    050102 213  0.4-  0.1+    050205 A65  0.1-  0.6-  

041210 246  0.1-  0.2-    050102 213  0.6-  0.1-    050205 A65  0.3+  0.0   

041210 246  0.4-  0.0     050102 349  0.8-  0.0     050205 644  0.1+  0.2+  

041210 246  0.4-  0.0     050102 349  0.6-  0.2+    050205 644  0.1+  0.5+  

041210 246  0.6-  0.2+    050104 A61  0.2+  0.0     050205 644  0.2+  0.3+  

041210 246  0.1-  0.2+    050104 A61  0.2+  0.0     050205 130  0.1+  0.0   

041210 246  0.4-  0.3+    050104 A61  0.3+  0.1-    050205 130  0.4+  0.3+  

041210 246  0.1-  0.0     050104 411  0.2-  0.5-    050205 130  0.2-  0.6-  

041210 854  0.1+  0.2-    050104 411  0.2+  0.4+    050206 360  0.1-  0.4-  

041210 854  0.3-  0.2+    050104 411  0.1-  0.3-    050206 360  0.0   0.6-  

041210 704  0.5+  0.3-    050104 411  0.2+  0.2-    050209 A61  1.3+  1.5-  

041210 704  0.7+  0.1+    050104 215  0.4+  0.2+    050209 A61  1.4+  0.6+  

041210 704  0.4+  0.2-    050104 215  0.2+  0.4+    050209 A61  1.1+  1.0-  

041210 704  0.5+  0.5-    050105 A61  0.2-  0.2-    050211 349  0.2-  0.3-  

041210 704  0.5+  0.5-    050105 A61 (2.4-  0.6-)   050211 349  0.2-  0.2-  

041210 704  0.2+  0.4-    050105 A61  0.2-  0.1+    050211 349  0.2-  0.4-  

041210 704  0.2+  0.6-    050105 204  0.2-  0.1+    050213 360  0.2-  0.2-  

041210 704  0.9-  0.4+    050105 204  0.4-  0.3-    050213 360  0.2-  0.3-  

041210 704  0.1-  0.1+    050105 204  0.4+  0.0     050213 349  0.5+  0.1+  

041210 704  0.6+  0.1-    050106 349  0.4-  0.1-    050213 349  0.2+  0.2-  

041210 D74  0.2+  0.0     050106 349  0.2-  0.1-    050213 349  0.0   0.1-  

041210 D74  0.1-  0.5+    050106 349  0.2-  0.3-    050214 703  0.2-  0.1-  

041210 D74  0.2+  0.2+    050106 D74  0.1+  0.1+    050214 703  1.0+  1.3+  

041210 349  0.5-  0.6+    050106 D74  0.7+  0.9-    050214 703 (0.1+  2.0+) 

041210 349  0.3-  0.6+    050107 703 (3.0-  2.5+)   050214 703  0.6-  1.8+  

041210 349  0.0   0.4+    050107 703 (2.1-  2.6+)   050217 213  0.4-  0.1+  

041211 170  0.2+  0.4-    050107 703 (2.1-  2.1+)   050217 213  0.0   0.2+  

041211 170  0.3+  0.4-    050107 703 (1.5-  2.0+)   050217 213  0.6+  0.7+  

041211 170  0.3+  0.7-    050109 213  0.4+  0.6-    050217 A61  0.1+  0.3-  

041211 170  0.2+  0.1-    050109 213  0.3+  0.6-    050217 A61  0.2+  0.4-  

041211 704  0.3+  0.1-    050109 213  0.0   0.7-    050217 A61 (1.2-  6.2-) 

041211 704 (2.8+  0.8-)   050110 138  1.2-  1.0+    050218 A61  0.2-  1.7-  

041211 704  0.3+  0.1-    050110 118  0.0   0.2-    050219 A61 (0.8+  2.1-) 

041211 704  0.3+  0.5+    050110 118  0.2-  0.1+    050226 A32  0.4-  0.4-  

041211 704  1.0-  0.4+    050110 118  0.1-  0.0     050226 A32  0.4+  0.1+  

041212 246  0.1+  0.4+    050110 138  1.4-  0.7+    050228 415  0.2-  0.6-  

041212 246  0.4+  0.2+    050111 561  0.3+  0.2-    050228 415  0.1+  1.1-  

041212 246  0.3+  0.1+    050111 561  0.2+  0.0     050228 415  0.3+  0.7-  

041212 246  0.6+  0.4+    050111 561  1.1+  0.7-    050301 A61  0.6+  0.6+  

041212 246  0.5+  0.5+    050111 A41  0.8-  0.3-    050301 A61  0.4+  0.0   

041212 204  0.1-  0.0     050112 A41  0.7-  0.0     050301 A61  1.0-  1.2-  

041212 204  0.3-  0.1+    050112 A41  1.1-  0.2-    050304 213  0.4+  1.5+  

041212 A61 (1.3+  2.5-)   050114 213  0.5+  0.1+    050304 213  0.5+  1.6+  

041212 A61  0.1+  0.7-    050114 213  0.3-  0.6+    050304 213  0.5+  1.7+  

041212 A61  0.5-  1.8-    050114 213  0.0   0.2+    050307 673  0.0   0.1-  

041213 699  0.2-  0.9+    050115 699  0.3+  1.0+    050307 673  0.3+  0.1+  

041213 699  0.5-  0.0     050115 699  0.3-  0.3+    050307 673  0.1+  0.3-  

041213 699  0.3-  0.4+    050115 699  0.0   1.1+    050307 673  0.1-  0.5-  

041213 699  0.6-  0.4+    050115 699  0.1+  1.2+    050307 360  0.3-  0.3-  

041213 372  0.1+  0.0     050119 213  1.5-  1.0+    050307 360  0.4-  0.3-  

041213 372 (2.3-  0.6-)   050119 213  0.7-  1.6+    050309 A32  0.1-  0.1-  

041214 704  0.9+  0.1-    050119 A61  0.5-  1.2-    050309 A32  0.3-  0.6+  

041214 704  0.4+  0.0     050119 A61  0.5-  0.7+    050309 A32  0.4-  0.0   

041214 704  0.8+  0.6+    050119 A61  0.4+  1.2+    050309 A32  0.2+  0.2+  

041214 704  0.4+  0.2-    050121 213  0.5+  0.4+    050311 704  0.6+  0.4-  

041214 704  0.2+  0.2-    050121 213  0.4+  0.4+    050311 704  0.3+  0.0   

041214 704  0.8+  0.2+    050121 213  0.4+  0.4+    050311 704  0.4+  0.0   

041214 704  0.0   0.6+    050128 D83 (2.0-  0.4+)   050311 704  0.5+  0.3-  

041214 704  0.4+  0.3+    050128 D83  0.5-  1.8-    050311 704  0.2+  0.8+  

041214 704  0.4+  0.3+    050130 213  0.3-  0.6+    050313 132  0.2+  0.5-  

041214 704  0.4+  0.1+    050130 213  0.4-  0.8+    050313 132  0.8-  0.2-  

041215 372  1.6-  0.6-    050130 213  0.2-  0.5+    050313 132  0.2-  0.0   

041215 213  0.2-  0.9+    050130 213  0.3-  0.4+    050314 360  0.5-  0.6-  

041215 213  0.3-  0.8+    050130 A61  0.5-  1.4-    050314 360  0.7-  0.4-  

041215 213  0.2-  0.7+    050131 A61  1.7+  1.9-    050316 J76  0.3-  0.2-  

041216 360  0.4-  0.2-    050131 A61  0.4+  1.6-    050316 J76  0.2-  0.1+  

041216 360  0.1-  0.5-    050131 349  0.1+  0.5+    050316 J76  0.5-  0.1-  

041216 360  0.0   0.3-    050131 349  0.5+  0.7+    050402 215  0.1-  0.7+  



NAKANO

         **** Don't distribute anyone except personal use only ****

                (C) Copyright 2005 OAA/ComputingSection

write mail from CFAD0::NAKANO on 2005-11-03 23:39:18(JST).

 



    C/2004 X2 (LINEAR)                                                    

Epoch 2004 Aug. 23.0 TT = JDT 2453240.5  

T 2004 Aug. 24.27812 TT                                 Nakano

q   3.7930217            (2000.0)            P               Q

z  +0.0006816      Peri.  162.20450     -0.50294237     -0.41777261

 +/-0.0000141      Node   307.34105     +0.63104865     +0.42071456

e   0.9974148      Incl.   72.12169     +0.59061542     -0.80527343

From 234 observations 2004 Nov. 19-2005 Mar. 16, mean residual 0".57.

   (1/a)org.= +0.001079, (1/a)fut.= +0.001340 (+/-0.000014), Q= 6.



NAKANO

         **** Don't distribute anyone except personal use only ****

                (C) Copyright 2005 OAA/ComputingSection

write mail from CFAD0::NAKANO on 2005-04-06 02:03:09(JST).



    C/2004 X2 (LINEAR)                                                    

Epoch 2004 Aug. 23.0 TT = JDT 2453240.5  

T 2004 Aug. 24.27759 TT                                 Nakano

q   3.7930164            (2000.0)            P               Q

z  +0.0006810      Peri.  162.20435     -0.50294077     -0.41777483

 +/-0.0000171      Node   307.34103     +0.63104795     +0.42071548

e   0.9974169      Incl.   72.12162     +0.59061753     -0.80527180

From 206 observations 2004 Nov. 19-2005 Feb. 28, mean residual 0".57.

   (1/a)org.= +0.001079, (1/a)fut.= +0.001340 (+/-0.000017), Q= 6.



NAKANO

         **** Don't distribute anyone except personal use only ****

                (C) Copyright 2005 OAA/ComputingSection

write mail from CFAD0::NAKANO on 2005-03-05 03:18:44(JST).

 

    C/2004 X2 (LINEAR)                                                    

Epoch 2004 Aug. 23.0 TT = JDT 2453240.5  

T 2004 Aug. 24.22442 TT                                 Nakano

q   3.7925897            (2000.0)            P               Q

z  +0.0007820      Peri.  162.19349     -0.50281507     -0.41795259

 +/-0.0000222      Node   307.33966     +0.63100248     +0.42077195

e   0.9970344      Incl.   72.11494     +0.59077312     -0.80515005

From 163 observations 2004 Nov. 19-2005 Feb. 1, mean residual 0".55.

   (1/a)org.= +0.001179, (1/a)fut.= +0.001441 (+/-0.000022), Q= 5.



NAKANO

         **** Don't distribute anyone except personal use only ****

                (C) Copyright 2005 OAA/ComputingSection

write mail from CFAD0::NAKANO on 2005-02-04 04:54:56(JST).

 



◎C/2004 X2の軌道と予報位置です



 彗星は,長円軌道を動く彗星の1つでした.



    C/2004 X2 (LINEAR)                                                    

T 2004 Aug. 24.21712 TT                                 Nakano

